When you browse on this site, cookies collect data to enhance your experience and personalize the content and advertising you see.
Visit our Privacy Policy to learn more. By continuing to use the site, you agree to this use of cookies and data.
  • In Portugal
  • List of Countries
  • For 7 days
  • Water Temperature
  • Weather Map
  • Weather Widgets
  • user-avatar
    Login

    Hourly Weather Kitzbuhel

    Today, 25 May, Monday

    Time Temperature Precipitation Wind Pressure Humidity
    00:00 +8°C° 0.2 mm 1 mps 685 mmHg 93%
    01:00 +8°C° 0 mm 1 mps 685 mmHg 95%
    02:00 +8°C° 0.3 mm 1 mps 685 mmHg 95%
    03:00 +8°C° 0.3 mm 1 mps 685 mmHg 96%
    04:00 +8°C° 0.3 mm 1 mps 685 mmHg 96%
    05:00 +8°C° 0.5 mm 1 mps 685 mmHg 96%
    06:00 +8°C° 0.5 mm 1 mps 685 mmHg 95%
    07:00 +9°C° 0 mm 1 mps 685 mmHg 96%
    08:00 +9°C° 0.9 mm 1 mps 685 mmHg 96%
    09:00 +9°C° 0.9 mm 1 mps 684 mmHg 96%
    10:00 +9°C° 0.9 mm 1 mps 684 mmHg 95%
    11:00 +9°C° 0.6 mm 2 mps 684 mmHg 92%
    12:00 +10°C° 0.6 mm 2 mps 684 mmHg 89%
    13:00 +12°C° 0.6 mm 2 mps 684 mmHg 86%
    14:00 +12°C° 0.9 mm 2 mps 684 mmHg 86%
    15:00 +12°C° 0.9 mm 2 mps 684 mmHg 87%
    16:00 +12°C° 0.9 mm 2 mps 683 mmHg 87%
    17:00 +10°C° 0.8 mm 2 mps 684 mmHg 89%
    18:00 +10°C° 0.8 mm 2 mps 684 mmHg 92%
    19:00 +10°C° 0.8 mm 1 mps 684 mmHg 94%
    20:00 +9°C° 0.8 mm 1 mps 684 mmHg 95%
    21:00 +9°C° 0.8 mm 1 mps 685 mmHg 96%
    22:00 +8°C° 0.8 mm 1 mps 686 mmHg 97%
    23:00 +8°C° 0.3 mm 1 mps 686 mmHg 97%

    Tomorrow, 26 May, Tuesday

    Time Temperature Precipitation Wind Pressure Humidity
    00:00 +8°C° 0.3 mm 1 mps 686 mmHg 98%
    01:00 +8°C° 0.3 mm 1 mps 686 mmHg 98%
    02:00 +7°C° 0.1 mm 1 mps 686 mmHg 98%
    03:00 +7°C° 0.1 mm 1 mps 685 mmHg 98%
    04:00 +7°C° 0.1 mm 1 mps 685 mmHg 97%
    05:00 +7°C° 0 mm 1 mps 685 mmHg 96%
    06:00 +8°C° 0 mm 1 mps 685 mmHg 94%
    07:00 +8°C° 0 mm 1 mps 686 mmHg 92%
    08:00 +10°C° 0.1 mm 1 mps 686 mmHg 83%
    09:00 +11°C° 0.1 mm 1 mps 686 mmHg 74%
    10:00 +12°C° 0.1 mm 2 mps 686 mmHg 65%
    11:00 +13°C° 0.1 mm 2 mps 686 mmHg 63%
    12:00 +13°C° 0.1 mm 2 mps 686 mmHg 61%
    13:00 +13°C° 0.1 mm 2 mps 686 mmHg 60%
    14:00 +13°C° 0.3 mm 2 mps 685 mmHg 63%
    15:00 +13°C° 0.3 mm 2 mps 685 mmHg 67%
    16:00 +12°C° 0.3 mm 3 mps 685 mmHg 70%
    17:00 +12°C° 0.7 mm 2 mps 685 mmHg 78%
    18:00 +11°C° 0.7 mm 1 mps 685 mmHg 85%
    19:00 +9°C° 0.7 mm 1 mps 685 mmHg 93%
    20:00 +8°C° 0.1 mm 1 mps 686 mmHg 93%
    21:00 +7°C° 0.1 mm 1 mps 686 mmHg 94%
    22:00 +6°C° 0.1 mm 1 mps 686 mmHg 95%
    23:00 +5°C° 0 mm 1 mps 686 mmHg 94%

    Day after tomorrow, 27 May, Wednesday

    Time Temperature Precipitation Wind Pressure Humidity
    00:00 +5°C° 0 mm 1 mps 686 mmHg 94%
    01:00 +5°C° 0 mm 1 mps 686 mmHg 94%
    02:00 +4°C° 0 mm 1 mps 686 mmHg 94%
    03:00 +4°C° 0 mm 1 mps 685 mmHg 93%
    04:00 +4°C° 0 mm 1 mps 685 mmHg 93%
    05:00 +6°C° 0 mm 1 mps 685 mmHg 89%
    06:00 +6°C° 0 mm 0 mps 686 mmHg 86%
    07:00 +8°C° 0 mm 0 mps 686 mmHg 82%
    08:00 +11°C° 0 mm 1 mps 686 mmHg 71%
    09:00 +14°C° 0 mm 1 mps 686 mmHg 59%
    10:00 +16°C° 0 mm 1 mps 686 mmHg 47%
    11:00 +16°C° 0 mm 2 mps 686 mmHg 45%
    12:00 +17°C° 0 mm 2 mps 686 mmHg 43%
    13:00 +18°C° 0 mm 2 mps 686 mmHg 41%
    14:00 +18°C° 0 mm 2 mps 686 mmHg 43%
    15:00 +17°C° 0 mm 2 mps 685 mmHg 45%
    16:00 +17°C° 0 mm 3 mps 685 mmHg 47%
    17:00 +16°C° 0 mm 2 mps 685 mmHg 57%
    18:00 +14°C° 0 mm 2 mps 685 mmHg 67%
    19:00 +13°C° 0 mm 1 mps 684 mmHg 76%
    20:00 +11°C° 0 mm 1 mps 684 mmHg 81%
    21:00 +9°C° 0 mm 1 mps 684 mmHg 86%
    22:00 +8°C° 0 mm 1 mps 684 mmHg 91%
    23:00 +7°C° 0 mm 1 mps 684 mmHg 91%

    28 May, Thursday

    Time Temperature Precipitation Wind Pressure Humidity
    00:00 +7°C° 0 mm 1 mps 684 mmHg 91%
    01:00 +7°C° 0 mm 1 mps 684 mmHg 91%
    02:00 +7°C° 0 mm 1 mps 683 mmHg 90%
    03:00 +7°C° 0 mm 1 mps 683 mmHg 90%
    04:00 +7°C° 0 mm 1 mps 683 mmHg 89%
    05:00 +8°C° 0 mm 1 mps 683 mmHg 84%
    06:00 +10°C° 0 mm 1 mps 683 mmHg 79%
    07:00 +11°C° 0 mm 1 mps 684 mmHg 74%
    08:00 +12°C° 0.2 mm 1 mps 684 mmHg 73%
    09:00 +13°C° 0.2 mm 1 mps 684 mmHg 72%
    10:00 +15°C° 0.2 mm 1 mps 684 mmHg 71%
    11:00 +15°C° 0.4 mm 1 mps 683 mmHg 68%
    12:00 +16°C° 0.4 mm 2 mps 683 mmHg 66%
    13:00 +16°C° 0.4 mm 2 mps 682 mmHg 63%
    14:00 +16°C° 0.4 mm 2 mps 682 mmHg 67%
    15:00 +15°C° 0.4 mm 2 mps 682 mmHg 70%
    16:00 +15°C° 0.4 mm 2 mps 681 mmHg 74%
    17:00 +14°C° 0.3 mm 2 mps 681 mmHg 80%
    18:00 +13°C° 0.3 mm 1 mps 681 mmHg 86%
    19:00 +12°C° 0.3 mm 1 mps 681 mmHg 91%
    20:00 +10°C° 0.1 mm 1 mps 681 mmHg 93%
    21:00 +8°C° 0.1 mm 0 mps 681 mmHg 94%
    22:00 +7°C° 0.1 mm 0 mps 681 mmHg 95%
    23:00 +6°C° 0 mm 0 mps 681 mmHg 95%

    29 May, Friday

    Time Temperature Precipitation Wind Pressure Humidity
    00:00 +6°C° 0 mm 0 mps 680 mmHg 96%
    01:00 +5°C° 0 mm 0 mps 680 mmHg 96%
    02:00 +5°C° 0 mm 0 mps 680 mmHg 96%
    03:00 +5°C° 0 mm 0 mps 679 mmHg 96%
    04:00 +5°C° 0 mm 0 mps 679 mmHg 95%
    05:00 +6°C° 0 mm 0 mps 679 mmHg 93%
    06:00 +8°C° 0 mm 0 mps 679 mmHg 91%
    07:00 +9°C° 0 mm 0 mps 679 mmHg 88%
    08:00 +11°C° 0 mm 1 mps 679 mmHg 78%
    09:00 +13°C° 0 mm 1 mps 679 mmHg 67%
    10:00 +15°C° 0 mm 1 mps 679 mmHg 57%
    11:00 +15°C° 0 mm 2 mps 679 mmHg 53%
    12:00 +15°C° 0 mm 2 mps 678 mmHg 50%
    13:00 +16°C° 0 mm 2 mps 678 mmHg 46%
    14:00 +16°C° 0 mm 3 mps 678 mmHg 49%
    15:00 +14°C° 0 mm 3 mps 677 mmHg 52%
    16:00 +14°C° 0 mm 3 mps 677 mmHg 55%
    17:00 +13°C° 0.1 mm 2 mps 677 mmHg 64%
    18:00 +12°C° 0.1 mm 2 mps 677 mmHg 74%
    19:00 +11°C° 0.1 mm 1 mps 677 mmHg 83%
    20:00 +10°C° 0.2 mm 1 mps 677 mmHg 88%
    21:00 +9°C° 0.2 mm 1 mps 677 mmHg 92%
    22:00 +8°C° 0.2 mm 1 mps 677 mmHg 96%
    23:00 +7°C° 1.4 mm 1 mps 677 mmHg 97%

    30 May, Saturday

    Time Temperature Precipitation Wind Pressure Humidity
    00:00 +6°C° 1.4 mm 2 mps 677 mmHg 98%
    01:00 +5°C° 1.4 mm 2 mps 677 mmHg 99%
    02:00 +6°C° 1.2 mm 1 mps 677 mmHg 99%
    03:00 +6°C° 1.2 mm 1 mps 677 mmHg 99%
    04:00 +5°C° 1.2 mm 1 mps 677 mmHg 98%
    05:00 +5°C° 0.2 mm 1 mps 677 mmHg 97%
    06:00 +6°C° 0.2 mm 1 mps 677 mmHg 96%
    07:00 +6°C° 0.2 mm 1 mps 678 mmHg 95%
    08:00 +8°C° 0.1 mm 1 mps 678 mmHg 85%
    09:00 +9°C° 0.1 mm 1 mps 678 mmHg 74%
    10:00 +10°C° 0.1 mm 2 mps 678 mmHg 64%
    11:00 +10°C° 0 mm 2 mps 678 mmHg 60%
    12:00 +12°C° 0 mm 2 mps 678 mmHg 56%
    13:00 +12°C° 0 mm 2 mps 678 mmHg 52%
    14:00 +12°C° 0 mm 2 mps 678 mmHg 55%
    15:00 +12°C° 0 mm 2 mps 678 mmHg 57%
    16:00 +12°C° 0 mm 2 mps 677 mmHg 60%
    17:00 +10°C° 0 mm 2 mps 677 mmHg 68%
    18:00 +10°C° 0 mm 1 mps 677 mmHg 75%
    19:00 +9°C° 0 mm 1 mps 677 mmHg 82%
    20:00 +8°C° 0 mm 1 mps 677 mmHg 87%
    21:00 +6°C° 0 mm 1 mps 677 mmHg 91%
    22:00 +5°C° 0 mm 1 mps 677 mmHg 95%
    23:00 +5°C° 0 mm 1 mps 677 mmHg 95%
    Show more